When you browse on this site, cookies collect data to enhance your experience and personalize the content and advertising you see.
Visit our Privacy Policy to learn more. By continuing to use the site, you agree to this use of cookies and data.
  • In United Kingdom
  • List of Countries
  • For 7 days
  • Water Temperature
  • Weather Map
  • Weather Widgets
  • user-avatar
    Login

    Hourly Weather Graz

    Today, 17 November, Sunday

    Time Temperature Precipitation Wind Pressure Humidity
    00:00 +9°C° 0 mm 1 mps 721 mmHg 95%
    01:00 +9°C° 0 mm 1 mps 721 mmHg 95%
    02:00 +9°C° 0.1 mm 1 mps 720 mmHg 95%
    03:00 +9°C° 0.1 mm 1 mps 720 mmHg 96%
    04:00 +9°C° 0.1 mm 1 mps 719 mmHg 96%
    05:00 +9°C° 0 mm 1 mps 719 mmHg 97%
    06:00 +9°C° 0 mm 1 mps 719 mmHg 97%
    07:00 +9°C° 0 mm 1 mps 719 mmHg 98%
    08:00 +10°C° 0 mm 1 mps 719 mmHg 97%
    09:00 +10°C° 0 mm 1 mps 719 mmHg 97%
    10:00 +10°C° 0 mm 1 mps 719 mmHg 96%
    11:00 +11°C° 0 mm 1 mps 718 mmHg 96%
    12:00 +11°C° 0 mm 1 mps 718 mmHg 95%
    13:00 +11°C° 0 mm 1 mps 717 mmHg 95%
    14:00 +11°C° 0 mm 1 mps 717 mmHg 95%
    15:00 +10°C° 0 mm 2 mps 717 mmHg 96%
    16:00 +10°C° 0 mm 2 mps 716 mmHg 97%
    17:00 +10°C° 0.1 mm 2 mps 716 mmHg 97%
    18:00 +10°C° 0.1 mm 2 mps 716 mmHg 97%
    19:00 +10°C° 0.1 mm 2 mps 716 mmHg 96%
    20:00 +10°C° 2 mm 2 mps 716 mmHg 96%
    21:00 +10°C° 2 mm 2 mps 716 mmHg 96%
    22:00 +10°C° 2 mm 2 mps 716 mmHg 96%
    23:00 +10°C° 2.7 mm 2 mps 716 mmHg 97%

    Tomorrow, 18 November, Monday

    Time Temperature Precipitation Wind Pressure Humidity
    00:00 +10°C° 2.7 mm 2 mps 716 mmHg 97%
    01:00 +10°C° 2.7 mm 2 mps 716 mmHg 98%
    02:00 +10°C° 1.3 mm 2 mps 716 mmHg 98%
    03:00 +10°C° 1.3 mm 2 mps 716 mmHg 98%
    04:00 +10°C° 1.3 mm 2 mps 716 mmHg 98%
    05:00 +9°C° 0.6 mm 2 mps 716 mmHg 97%
    06:00 +10°C° 0.6 mm 1 mps 716 mmHg 97%
    07:00 +10°C° 0.6 mm 1 mps 717 mmHg 97%
    08:00 +10°C° 0 mm 1 mps 717 mmHg 94%
    09:00 +11°C° 0 mm 1 mps 718 mmHg 91%
    10:00 +11°C° 0 mm 1 mps 718 mmHg 87%
    11:00 +12°C° 0 mm 2 mps 719 mmHg 81%
    12:00 +12°C° 0 mm 2 mps 719 mmHg 75%
    13:00 +13°C° 0 mm 2 mps 720 mmHg 69%
    14:00 +12°C° 0 mm 2 mps 720 mmHg 72%
    15:00 +10°C° 0 mm 2 mps 720 mmHg 75%
    16:00 +10°C° 0 mm 1 mps 720 mmHg 79%
    17:00 +9°C° 0 mm 1 mps 721 mmHg 81%
    18:00 +8°C° 0 mm 1 mps 721 mmHg 83%
    19:00 +7°C° 0 mm 1 mps 722 mmHg 85%
    20:00 +7°C° 0 mm 1 mps 722 mmHg 85%
    21:00 +6°C° 0 mm 1 mps 722 mmHg 86%
    22:00 +5°C° 0 mm 0 mps 722 mmHg 86%
    23:00 +5°C° 0 mm 0 mps 722 mmHg 86%

    Day after tomorrow, 19 November, Tuesday

    Time Temperature Precipitation Wind Pressure Humidity
    00:00 +5°C° 0 mm 0 mps 722 mmHg 87%
    01:00 +6°C° 0 mm 0 mps 722 mmHg 87%
    02:00 +6°C° 0.2 mm 0 mps 722 mmHg 89%
    03:00 +6°C° 0.2 mm 0 mps 722 mmHg 90%
    04:00 +6°C° 0.2 mm 0 mps 722 mmHg 92%
    05:00 +6°C° 0.5 mm 0 mps 722 mmHg 93%
    06:00 +6°C° 0.5 mm 0 mps 722 mmHg 95%
    07:00 +7°C° 0.5 mm 1 mps 722 mmHg 96%
    08:00 +8°C° 0.2 mm 1 mps 722 mmHg 94%
    09:00 +9°C° 0.2 mm 1 mps 722 mmHg 93%
    10:00 +9°C° 0.2 mm 1 mps 722 mmHg 91%
    11:00 +10°C° 0 mm 1 mps 722 mmHg 89%
    12:00 +10°C° 0 mm 1 mps 722 mmHg 87%
    13:00 +11°C° 0 mm 1 mps 722 mmHg 86%
    14:00 +10°C° 0.1 mm 1 mps 722 mmHg 88%
    15:00 +10°C° 0.1 mm 1 mps 722 mmHg 90%
    16:00 +10°C° 0.1 mm 1 mps 722 mmHg 92%
    17:00 +9°C° 0.5 mm 1 mps 722 mmHg 93%
    18:00 +9°C° 0.5 mm 1 mps 722 mmHg 94%
    19:00 +9°C° 0.5 mm 1 mps 722 mmHg 95%
    20:00 +9°C° 0.9 mm 1 mps 722 mmHg 96%
    21:00 +9°C° 0.9 mm 1 mps 722 mmHg 96%
    22:00 +9°C° 0.9 mm 1 mps 722 mmHg 97%
    23:00 +9°C° 0.4 mm 1 mps 722 mmHg 97%

    20 November, Wednesday

    Time Temperature Precipitation Wind Pressure Humidity
    00:00 +9°C° 0.4 mm 1 mps 722 mmHg 96%
    01:00 +9°C° 0.4 mm 1 mps 722 mmHg 96%
    02:00 +9°C° 0.4 mm 1 mps 722 mmHg 96%
    03:00 +9°C° 0.4 mm 1 mps 722 mmHg 96%
    04:00 +9°C° 0.4 mm 1 mps 722 mmHg 95%
    05:00 +9°C° 0.3 mm 1 mps 722 mmHg 95%
    06:00 +8°C° 0.3 mm 0 mps 722 mmHg 95%
    07:00 +8°C° 0.3 mm 0 mps 722 mmHg 95%
    08:00 +8°C° 0.1 mm 0 mps 722 mmHg 94%
    09:00 +8°C° 0.1 mm 0 mps 722 mmHg 94%
    10:00 +8°C° 0.1 mm 0 mps 722 mmHg 94%
    11:00 +8°C° 0.3 mm 0 mps 722 mmHg 94%
    12:00 +8°C° 0.3 mm 0 mps 722 mmHg 95%
    13:00 +8°C° 0.3 mm 0 mps 722 mmHg 95%
    14:00 +8°C° 0.2 mm 0 mps 722 mmHg 96%
    15:00 +8°C° 0.2 mm 0 mps 722 mmHg 96%
    16:00 +8°C° 0.2 mm 0 mps 721 mmHg 97%
    17:00 +8°C° 0 mm 0 mps 721 mmHg 97%
    18:00 +8°C° 0 mm 0 mps 722 mmHg 97%
    19:00 +8°C° 0 mm 0 mps 722 mmHg 97%
    20:00 +7°C° 0 mm 0 mps 722 mmHg 96%
    21:00 +7°C° 0 mm 0 mps 722 mmHg 96%
    22:00 +7°C° 0 mm 1 mps 722 mmHg 96%
    23:00 +7°C° 0 mm 1 mps 722 mmHg 96%

    21 November, Thursday

    Time Temperature Precipitation Wind Pressure Humidity
    00:00 +7°C° 0 mm 1 mps 722 mmHg 96%
    01:00 +6°C° 0 mm 1 mps 722 mmHg 96%
    02:00 +6°C° 0 mm 1 mps 721 mmHg 95%
    03:00 +6°C° 0 mm 1 mps 721 mmHg 94%
    04:00 +5°C° 0 mm 1 mps 721 mmHg 93%
    05:00 +5°C° 0 mm 1 mps 721 mmHg 93%
    06:00 +4°C° 0 mm 1 mps 721 mmHg 92%
    07:00 +4°C° 0 mm 1 mps 721 mmHg 91%
    08:00 +5°C° 0 mm 1 mps 721 mmHg 87%
    09:00 +6°C° 0 mm 1 mps 721 mmHg 83%
    10:00 +7°C° 0 mm 1 mps 722 mmHg 79%
    11:00 +8°C° 0 mm 1 mps 721 mmHg 77%
    12:00 +8°C° 0 mm 1 mps 721 mmHg 75%
    13:00 +8°C° 0 mm 2 mps 721 mmHg 73%
    14:00 +8°C° 0 mm 1 mps 721 mmHg 78%
    15:00 +8°C° 0 mm 1 mps 721 mmHg 83%
    16:00 +7°C° 0 mm 1 mps 720 mmHg 87%
    17:00 +7°C° 0 mm 1 mps 720 mmHg 89%
    18:00 +7°C° 0 mm 1 mps 720 mmHg 90%
    19:00 +6°C° 0 mm 1 mps 720 mmHg 92%
    20:00 +6°C° 0 mm 1 mps 720 mmHg 93%
    21:00 +6°C° 0 mm 1 mps 721 mmHg 93%
    22:00 +7°C° 0 mm 1 mps 721 mmHg 94%
    23:00 +7°C° 0 mm 1 mps 721 mmHg 94%

    22 November, Friday

    Time Temperature Precipitation Wind Pressure Humidity
    00:00 +6°C° 0 mm 1 mps 721 mmHg 95%
    01:00 +6°C° 0 mm 1 mps 720 mmHg 95%
    02:00 +6°C° 0 mm 1 mps 721 mmHg 95%
    03:00 +6°C° 0 mm 1 mps 721 mmHg 95%
    04:00 +6°C° 0 mm 1 mps 721 mmHg 95%
    05:00 +6°C° 0 mm 1 mps 721 mmHg 95%
    06:00 +6°C° 0 mm 1 mps 721 mmHg 94%
    07:00 +6°C° 0 mm 1 mps 722 mmHg 94%
    08:00 +7°C° 0 mm 1 mps 722 mmHg 91%
    09:00 +9°C° 0 mm 1 mps 722 mmHg 88%
    10:00 +10°C° 0 mm 1 mps 723 mmHg 84%
    11:00 +11°C° 0 mm 1 mps 723 mmHg 83%
    12:00 +11°C° 0 mm 1 mps 723 mmHg 81%
    13:00 +12°C° 0 mm 1 mps 722 mmHg 80%
    14:00 +11°C° 0 mm 1 mps 722 mmHg 84%
    15:00 +11°C° 0 mm 1 mps 722 mmHg 88%
    16:00 +10°C° 0 mm 1 mps 722 mmHg 92%
    17:00 +10°C° 0 mm 1 mps 722 mmHg 93%
    18:00 +9°C° 0 mm 1 mps 722 mmHg 94%
    19:00 +9°C° 0 mm 1 mps 723 mmHg 94%
    20:00 +9°C° 0 mm 1 mps 723 mmHg 95%
    21:00 +9°C° 0 mm 1 mps 723 mmHg 95%
    22:00 +8°C° 0 mm 1 mps 723 mmHg 96%
    23:00 +8°C° 0 mm 1 mps 723 mmHg 96%
    Show more